| time (UTC) | temp F | wind direction | speed MPH | gust MPH | rain 1hr in | rain 24hr in | rain mn in | humidity % | barometer mb |
| 20260904175621 | 87 | 91 | 4.0 | 9.0 | 0.00 | 0.04 | 0.04 | 80 | 1014.0 |
| 20260904175127 | 87 | 103 | 3.0 | 10.0 | 0.00 | 0.04 | 0.04 | 79 | 1013.9 |
| 20260904174554 | 87 | 82 | 5.0 | 9.0 | 0.00 | 0.04 | 0.04 | 80 | 1013.9 |
| 20260904174100 | 87 | 76 | 6.0 | 11.0 | 0.00 | 0.04 | 0.04 | 79 | 1013.8 |
| 20260904173550 | 88 | 97 | 6.0 | 11.0 | 0.00 | 0.04 | 0.04 | 78 | 1013.8 |
| 20260904173035 | 88 | 128 | 4.0 | 10.0 | 0.00 | 0.04 | 0.04 | 76 | 1013.9 |
| 20260904172547 | 89 | 78 | 4.0 | 9.0 | 0.00 | 0.04 | 0.04 | 75 | 1014.0 |
| 20260904171613 | 89 | 189 | 2.0 | 12.0 | 0.00 | 0.04 | 0.04 | 74 | 1014.1 |
| 20260904171126 | 89 | 139 | 5.0 | 12.0 | 0.00 | 0.04 | 0.04 | 75 | 1014.2 |
| 20260904170631 | 88 | 173 | 3.0 | 8.0 | 0.00 | 0.04 | 0.04 | 78 | 1014.2 |
| 20260904170059 | 88 | 245 | 3.0 | 5.0 | 0.00 | 0.04 | 0.04 | 78 | 1014.3 |
| 20260904165610 | 87 | 245 | 1.0 | 4.0 | 0.00 | 0.04 | 0.04 | 78 | 1014.4 |
| 20260904165113 | 87 | 246 | 0.0 | 9.0 | 0.00 | 0.04 | 0.04 | 81 | 1014.4 |
| 20260904164540 | 87 | 247 | 0.0 | 9.0 | 0.00 | 0.04 | 0.04 | 80 | 1014.4 |
| 20260904164044 | 87 | 248 | 3.0 | 9.0 | 0.00 | 0.04 | 0.04 | 79 | 1014.3 |
| 20260904163117 | 87 | 213 | 1.0 | 8.0 | 0.00 | 0.04 | 0.04 | 81 | 1014.3 |
| 20260904162601 | 87 | 122 | 2.0 | 7.0 | 0.00 | 0.04 | 0.04 | 83 | 1014.2 |
| 20260904161630 | 86 | 194 | 3.0 | 6.0 | 0.00 | 0.04 | 0.04 | 84 | 1014.2 |
| 20260904161035 | 85 | 207 | 2.0 | 5.0 | 0.00 | 0.04 | 0.04 | 85 | 1014.1 |
| 20260904160054 | 85 | 206 | 4.0 | 7.0 | 0.00 | 0.04 | 0.04 | 85 | 1014.1 |
| 20260904155542 | 85 | 207 | 5.0 | 7.0 | 0.00 | 0.04 | 0.04 | 86 | 1014.2 |
| 20260904154608 | 84 | 140 | 2.0 | 6.0 | 0.00 | 0.04 | 0.04 | 90 | 1014.2 |
| 20260904154059 | 84 | 140 | 2.0 | 4.0 | 0.00 | 0.04 | 0.04 | 91 | 1014.2 |
| 20260904153059 | 83 | 99 | 3.0 | 6.0 | 0.00 | 0.04 | 0.04 | 92 | 1014.2 |
| 20260904152604 | 83 | 82 | 4.0 | 5.0 | 0.00 | 0.04 | 0.04 | 92 | 1014.2 |
| 20260904151623 | 82 | 110 | 0.0 | 1.0 | 0.00 | 0.04 | 0.04 | 93 | 1014.1 |
| 20260904151114 | 82 | 89 | 0.0 | 3.0 | 0.00 | 0.04 | 0.04 | 93 | 1014.2 |
| 20260904150625 | 82 | 94 | 0.0 | 3.0 | 0.00 | 0.04 | 0.04 | 93 | 1014.1 |
| 20260904150046 | 82 | 119 | 0.0 | 0.0 | 0.00 | 0.04 | 0.04 | 93 | 1014.1 |
| 20260904145601 | 81 | 120 | 0.0 | 2.0 | 0.00 | 0.04 | 0.04 | 93 | 1014.1 |
| 20260904144603 | 81 | 111 | 0.0 | 3.0 | 0.00 | 0.04 | 0.04 | 94 | 1014.0 |
| 20260904144107 | 81 | 109 | 1.0 | 4.0 | 0.00 | 0.04 | 0.04 | 94 | 1014.0 |
| 20260904143619 | 81 | 140 | 2.0 | 4.0 | 0.00 | 0.04 | 0.04 | 94 | 1014.0 |
| 20260904143047 | 81 | 116 | 0.0 | 3.0 | 0.00 | 0.04 | 0.04 | 94 | 1013.9 |
| 20260904142552 | 81 | 120 | 0.0 | 3.0 | 0.00 | 0.04 | 0.04 | 94 | 1013.9 |
| 20260904141621 | 81 | 132 | 0.0 | 4.0 | 0.00 | 0.04 | 0.04 | 94 | 1013.8 |
| 20260904141125 | 81 | 133 | 2.0 | 5.0 | 0.00 | 0.04 | 0.04 | 94 | 1013.8 |
| 20260904140613 | 81 | 132 | 0.0 | 0.0 | 0.00 | 0.04 | 0.04 | 94 | 1013.7 |
| 20260904140038 | 81 | 134 | 0.0 | 0.0 | 0.00 | 0.04 | 0.04 | 94 | 1013.7 |
| 20260904135550 | 81 | 134 | 0.0 | 3.0 | 0.00 | 0.04 | 0.04 | 94 | 1013.6 |
| 20260904134612 | 80 | 134 | 3.0 | 4.0 | 0.00 | 0.04 | 0.04 | 95 | 1013.4 |
| 20260904134103 | 80 | 117 | 0.0 | 0.0 | 0.00 | 0.04 | 0.04 | 95 | 1013.4 |
| 20260904133125 | 80 | 115 | 0.0 | 0.0 | 0.00 | 0.04 | 0.04 | 94 | 1013.2 |
| 20260904132541 | 80 | 113 | 0.0 | 0.0 | 0.00 | 0.04 | 0.04 | 94 | 1013.3 |
| 20260904132143 | 80 | 111 | 0.0 | 1.0 | 0.00 | 0.04 | 0.04 | 94 | 1013.3 |
| 20260904131554 | 80 | 111 | 0.0 | 3.0 | 0.00 | 0.04 | 0.04 | 94 | 1013.3 |
| 20260904131106 | 80 | 98 | 0.0 | 4.0 | 0.00 | 0.04 | 0.04 | 94 | 1013.3 |
| 20260904130128 | 80 | 105 | 0.0 | 0.0 | 0.00 | 0.04 | 0.04 | 94 | 1013.2 |
| 20260904125634 | 80 | 104 | 0.0 | 0.0 | 0.00 | 0.04 | 0.04 | 94 | 1013.1 |
| 20260904124638 | 80 | 103 | 0.0 | 0.0 | 0.00 | 0.04 | 0.04 | 94 | 1013.0 |
| 20260904124100 | 80 | 101 | 0.0 | 0.0 | 0.00 | 0.04 | 0.04 | 94 | 1013.0 |
| 20260904123128 | 80 | 98 | 0.0 | 0.0 | 0.00 | 0.04 | 0.04 | 94 | 1012.9 |
| 20260904122607 | 80 | 94 | 0.0 | 0.0 | 0.00 | 0.04 | 0.04 | 94 | 1012.8 |
| 20260904122119 | 80 | 93 | 0.0 | 0.0 | 0.00 | 0.04 | 0.04 | 94 | 1012.8 |
| 20260904121046 | 80 | 90 | 2.0 | 4.0 | 0.00 | 0.04 | 0.04 | 94 | 1012.6 |
| 20260904120108 | 80 | 90 | 0.0 | 1.0 | 0.00 | 0.04 | 0.04 | 94 | 1012.5 |
| 20260904115621 | 80 | 140 | 0.0 | 0.0 | 0.00 | 0.04 | 0.04 | 94 | 1012.5 |
| 20260904114620 | 80 | 140 | 0.0 | 0.0 | 0.00 | 0.04 | 0.04 | 94 | 1012.3 |
| 20260904114034 | 80 | 140 | 0.0 | 0.0 | 0.00 | 0.04 | 0.04 | 94 | 1012.3 |
| 20260904113535 | 80 | 141 | 0.0 | 0.0 | 0.00 | 0.04 | 0.04 | 94 | 1012.3 |
| 20260904112641 | 80 | 140 | 0.0 | 0.0 | 0.00 | 0.04 | 0.04 | 94 | 1012.2 |
| 20260904111601 | 80 | 138 | 0.0 | 0.0 | 0.00 | 0.04 | 0.04 | 93 | 1012.3 |
| 20260904111051 | 80 | 137 | 0.0 | 0.0 | 0.00 | 0.04 | 0.04 | 93 | 1012.3 |
| 20260904110051 | 80 | 137 | 0.0 | 0.0 | 0.00 | 0.04 | 0.04 | 93 | 1012.3 |
| 20260904105603 | 80 | 137 | 0.0 | 0.0 | 0.00 | 0.04 | 0.04 | 93 | 1012.3 |
| 20260904104626 | 80 | 137 | 0.0 | 0.0 | 0.01 | 0.04 | 0.04 | 93 | 1012.2 |
| 20260904104138 | 80 | 137 | 0.0 | 0.0 | 0.01 | 0.04 | 0.04 | 93 | 1012.2 |
| 20260904103622 | 80 | 138 | 0.0 | 0.0 | 0.02 | 0.04 | 0.04 | 93 | 1012.1 |
| 20260904103054 | 80 | 138 | 0.0 | 0.0 | 0.02 | 0.04 | 0.04 | 93 | 1012.1 |
| 20260904102536 | 80 | 138 | 0.0 | 0.0 | 0.03 | 0.04 | 0.04 | 93 | 1012.1 |
| 20260904102150 | 80 | 137 | 0.0 | 0.0 | 0.03 | 0.04 | 0.04 | 93 | 1012.1 |
| 20260904101555 | 80 | 137 | 0.0 | 0.0 | 0.03 | 0.04 | 0.04 | 93 | 1012.0 |
| 20260904101100 | 80 | 137 | 0.0 | 0.0 | 0.03 | 0.04 | 0.04 | 93 | 1012.0 |
| 20260904100607 | 80 | 136 | 0.0 | 3.0 | 0.03 | 0.04 | 0.04 | 93 | 1012.0 |
| 20260904100037 | 80 | 136 | 0.0 | 3.0 | 0.03 | 0.04 | 0.04 | 93 | 1012.0 |
| 20260904095542 | 80 | 155 | 0.0 | 6.0 | 0.04 | 0.04 | 0.04 | 93 | 1012.1 |
| 20260904095154 | 80 | 155 | 1.0 | 7.0 | 0.04 | 0.04 | 0.04 | 93 | 1012.1 |
| 20260904094553 | 80 | 153 | 3.0 | 7.0 | 0.03 | 0.03 | 0.03 | 93 | 1011.9 |
| 20260904094105 | 80 | 186 | 3.0 | 8.0 | 0.03 | 0.03 | 0.03 | 93 | 1011.9 |
| 20260904093621 | 80 | 193 | 4.0 | 10.0 | 0.03 | 0.03 | 0.03 | 93 | 1011.8 |
| 20260904093042 | 80 | 194 | 5.0 | 10.0 | 0.03 | 0.03 | 0.03 | 93 | 1011.8 |
| 20260904092555 | 80 | 208 | 6.0 | 10.0 | 0.02 | 0.02 | 0.02 | 93 | 1011.7 |
| 20260904091617 | 80 | 185 | 7.0 | 9.0 | 0.01 | 0.01 | 0.01 | 93 | 1011.8 |
| 20260904091129 | 80 | 181 | 6.0 | 8.0 | 0.01 | 0.01 | 0.01 | 93 | 1011.9 |
| 20260904090310 | 80 | 175 | 7.0 | 9.0 | 0.01 | 0.01 | 0.01 | 93 | 1011.9 |
| 20260904085611 | 81 | 159 | 7.0 | 9.0 | 0.01 | 0.01 | 0.01 | 93 | 1011.8 |
| 20260904084633 | 81 | 153 | 6.0 | 8.0 | 0.00 | 0.00 | 0.00 | 92 | 1011.9 |
| 20260904084124 | 81 | 183 | 5.0 | 8.0 | 0.00 | 0.00 | 0.00 | 92 | 1011.9 |
| 20260904083629 | 81 | 184 | 7.0 | 9.0 | 0.00 | 0.00 | 0.00 | 92 | 1011.9 |
| 20260904083055 | 81 | 190 | 7.0 | 9.0 | 0.00 | 0.00 | 0.00 | 92 | 1011.8 |
| 20260904082554 | 81 | 198 | 6.0 | 10.0 | 0.00 | 0.00 | 0.00 | 92 | 1011.9 |
| 20260904081624 | 81 | 194 | 7.0 | 9.0 | 0.00 | 0.00 | 0.00 | 92 | 1011.9 |
| 20260904081106 | 81 | 178 | 6.0 | 9.0 | 0.00 | 0.00 | 0.00 | 92 | 1011.9 |
| 20260904080129 | 81 | 183 | 4.0 | 7.0 | 0.00 | 0.00 | 0.00 | 92 | 1012.0 |
| 20260904075540 | 81 | 184 | 4.0 | 7.0 | 0.00 | 0.00 | 0.00 | 91 | 1012.0 |
| 20260904074600 | 81 | 184 | 4.0 | 5.0 | 0.00 | 0.00 | 0.00 | 91 | 1012.2 |
| 20260904074112 | 81 | 185 | 0.0 | 4.0 | 0.00 | 0.00 | 0.00 | 91 | 1012.2 |
| 20260904073622 | 81 | 180 | 1.0 | 5.0 | 0.00 | 0.00 | 0.00 | 91 | 1012.2 |
| 20260904073048 | 81 | 182 | 3.0 | 9.0 | 0.00 | 0.00 | 0.00 | 91 | 1012.2 |
| 20260904072558 | 81 | 182 | 5.0 | 9.0 | 0.00 | 0.00 | 0.00 | 91 | 1012.3 |
| 20260904071620 | 81 | 178 | 6.0 | 10.0 | 0.00 | 0.00 | 0.00 | 91 | 1012.4 |
| 20260904071044 | 81 | 166 | 4.0 | 8.0 | 0.00 | 0.00 | 0.00 | 91 | 1012.5 |
| 20260904070045 | 81 | 163 | 5.0 | 7.0 | 0.00 | 0.00 | 0.00 | 91 | 1012.5 |
| 20260904065535 | 81 | 156 | 4.0 | 6.0 | 0.00 | 0.00 | 0.00 | 91 | 1012.5 |
| 20260904065103 | 81 | 182 | 1.0 | 7.0 | 0.00 | 0.00 | 0.00 | 91 | 1012.6 |
| 20260904064541 | 81 | 161 | 2.0 | 8.0 | 0.00 | 0.00 | 0.00 | 91 | 1012.6 |
| 20260904064049 | 81 | 133 | 5.0 | 8.0 | 0.00 | 0.00 | 0.00 | 91 | 1012.6 |
| 20260904063539 | 81 | 145 | 4.0 | 8.0 | 0.00 | 0.00 | 0.00 | 91 | 1012.6 |
| 20260904063052 | 81 | 148 | 4.0 | 9.0 | 0.00 | 0.00 | 0.00 | 91 | 1012.5 |
| 20260904062542 | 81 | 148 | 4.0 | 11.0 | 0.00 | 0.00 | 0.00 | 91 | 1012.5 |
| 20260904062036 | 81 | 147 | 6.0 | 9.0 | 0.00 | 0.00 | 0.00 | 91 | 1012.4 |
| 20260904061549 | 81 | 169 | 5.0 | 12.0 | 0.00 | 0.00 | 0.00 | 91 | 1012.4 |
| 20260904061100 | 81 | 142 | 8.0 | 12.0 | 0.00 | 0.00 | 0.00 | 91 | 1012.4 |
| 20260904060552 | 81 | 138 | 5.0 | 8.0 | 0.00 | 0.00 | 0.00 | 90 | 1012.5 |
| 20260904060049 | 81 | 140 | 4.0 | 10.0 | 0.00 | 0.00 | 0.00 | 90 | 1012.5 |
| 20260904055535 | 81 | 142 | 6.0 | 10.0 | 0.00 | 0.00 | 0.00 | 90 | 1012.5 |
| 20260904055105 | 82 | 145 | 6.0 | 11.0 | 0.00 | 0.00 | 0.00 | 90 | 1012.5 |
| 20260904054604 | 82 | 146 | 7.0 | 12.0 | 0.00 | 0.00 | 0.00 | 90 | 1012.4 |
| 20260904054053 | 82 | 148 | 7.0 | 11.0 | 0.00 | 0.00 | 0.00 | 90 | 1012.4 |
| 20260904053536 | 81 | 155 | 4.0 | 11.0 | 0.00 | 0.00 | 0.00 | 90 | 1012.3 |
| 20260904053036 | 81 | 151 | 5.0 | 9.0 | 0.00 | 0.00 | 0.00 | 90 | 1012.3 |
| 20260904052545 | 81 | 133 | 5.0 | 9.0 | 0.00 | 0.00 | 0.00 | 90 | 1012.3 |
| 20260904052053 | 81 | 142 | 4.0 | 7.0 | 0.00 | 0.00 | 0.00 | 91 | 1012.2 |
| 20260904051547 | 81 | 145 | 4.0 | 7.0 | 0.00 | 0.00 | 0.00 | 90 | 1012.1 |
| 20260904051038 | 81 | 115 | 4.0 | 7.0 | 0.00 | 0.00 | 0.00 | 90 | 1012.1 |
| 20260904050547 | 81 | 140 | 3.0 | 7.0 | 0.00 | 0.00 | 0.00 | 90 | 1012.1 |
| 20260904050128 | 81 | 131 | 4.0 | 9.0 | 0.00 | 0.00 | 0.00 | 90 | 1012.1 |
| 20260904045539 | 81 | 140 | 4.0 | 10.0 | 0.00 | 0.00 | 0.00 | 90 | 1012.1 |
| 20260904044540 | 81 | 148 | 5.0 | 9.0 | 0.00 | 0.00 | 0.00 | 90 | 1012.1 |
| 20260904044051 | 81 | 143 | 6.0 | 9.0 | 0.00 | 0.00 | 0.00 | 90 | 1012.1 |
| 20260904043111 | 81 | 136 | 5.0 | 10.0 | 0.00 | 0.00 | 0.00 | 90 | 1012.0 |
| 20260904042621 | 81 | 148 | 6.0 | 10.0 | 0.00 | 0.00 | 0.00 | 89 | 1012.1 |
| 20260904041626 | 81 | 144 | 6.0 | 11.0 | 0.00 | 0.00 | 0.00 | 89 | 1012.1 |
| 20260904041130 | 81 | 146 | 6.0 | 11.0 | 0.00 | 0.00 | 0.00 | 89 | 1012.2 |
| 20260904040642 | 81 | 149 | 7.0 | 11.0 | 0.00 | 0.00 | 0.00 | 89 | 1012.2 |
| 20260904040048 | 81 | 169 | 7.0 | 11.0 | 0.00 | 0.00 | 0.00 | 89 | 1012.1 |
| 20260904035553 | 81 | 153 | 7.0 | 12.0 | 0.00 | 0.01 | 0.00 | 89 | 1012.1 |
| 20260904034622 | 81 | 137 | 7.0 | 14.0 | 0.00 | 0.01 | 0.00 | 89 | 1012.1 |
| 20260904034046 | 81 | 149 | 7.0 | 14.0 | 0.00 | 0.01 | 0.00 | 89 | 1012.3 |
| 20260904033046 | 81 | 145 | 8.0 | 13.0 | 0.00 | 0.01 | 0.00 | 88 | 1012.1 |
| 20260904032601 | 81 | 128 | 8.0 | 13.0 | 0.00 | 0.01 | 0.00 | 88 | 1012.1 |
| 20260904031603 | 81 | 142 | 8.0 | 13.0 | 0.00 | 0.01 | 0.00 | 88 | 1011.9 |
| 20260904031108 | 81 | 150 | 9.0 | 15.0 | 0.00 | 0.01 | 0.00 | 88 | 1011.9 |
| 20260904030619 | 81 | 143 | 11.0 | 15.0 | 0.00 | 0.01 | 0.00 | 88 | 1011.9 |
| 20260904030039 | 81 | 140 | 10.0 | 15.0 | 0.00 | 0.01 | 0.00 | 87 | 1012.0 |
| 20260904025550 | 81 | 165 | 10.0 | 14.0 | 0.00 | 0.02 | 0.00 | 87 | 1012.0 |
| 20260904024613 | 81 | 137 | 9.0 | 16.0 | 0.00 | 0.02 | 0.00 | 87 | 1011.9 |
| 20260904024102 | 81 | 159 | 9.0 | 17.0 | 0.00 | 0.02 | 0.00 | 87 | 1011.9 |
| 20260904023128 | 81 | 127 | 8.0 | 13.0 | 0.00 | 0.02 | 0.00 | 87 | 1011.6 |
| 20260904022641 | 81 | 140 | 8.0 | 14.0 | 0.00 | 0.02 | 0.00 | 86 | 1011.7 |
| 20260904022125 | 81 | 150 | 9.0 | 14.0 | 0.00 | 0.02 | 0.00 | 86 | 1011.5 |
| 20260904021553 | 81 | 142 | 9.0 | 12.0 | 0.00 | 0.02 | 0.00 | 86 | 1011.5 |
| 20260904021037 | 81 | 142 | 9.0 | 12.0 | 0.00 | 0.02 | 0.00 | 86 | 1011.6 |
| 20260904020057 | 81 | 134 | 8.0 | 15.0 | 0.00 | 0.02 | 0.00 | 85 | 1011.4 |
| 20260904015609 | 81 | 155 | 7.0 | 11.0 | 0.00 | 1.20 | 0.00 | 85 | 1011.3 |
| 20260904014612 | 81 | 127 | 7.0 | 12.0 | 0.00 | 1.20 | 0.00 | 85 | 1011.3 |
| 20260904014104 | 81 | 148 | 5.0 | 12.0 | 0.00 | 1.20 | 0.00 | 84 | 1011.2 |
| 20260904013613 | 81 | 128 | 7.0 | 15.0 | 0.00 | 1.20 | 0.00 | 84 | 1011.2 |
| 20260904013038 | 81 | 123 | 8.0 | 15.0 | 0.00 | 1.20 | 0.00 | 84 | 1011.2 |
| 20260904012550 | 81 | 163 | 8.0 | 15.0 | 0.00 | 1.20 | 0.00 | 84 | 1011.1 |
| 20260904011613 | 81 | 149 | 8.0 | 14.0 | 0.00 | 1.20 | 0.00 | 84 | 1010.9 |
| 20260904011125 | 81 | 126 | 10.0 | 14.0 | 0.00 | 1.20 | 0.00 | 84 | 1010.9 |
| 20260904010629 | 82 | 144 | 7.0 | 13.0 | 0.00 | 1.20 | 0.00 | 84 | 1010.9 |
| 20260904010101 | 82 | 148 | 8.0 | 15.0 | 0.00 | 1.20 | 0.00 | 83 | 1010.9 |
| 20260904005612 | 82 | 127 | 10.0 | 15.0 | 0.00 | 1.20 | 0.00 | 82 | 1010.8 |
| 20260904005154 | 82 | 140 | 8.0 | 12.0 | 0.00 | 1.20 | 0.00 | 82 | 1010.9 |
| 20260904004605 | 82 | 101 | 7.0 | 14.0 | 0.00 | 1.20 | 0.00 | 82 | 1010.9 |
| 20260904004115 | 82 | 142 | 7.0 | 14.0 | 0.00 | 1.20 | 0.00 | 82 | 1010.9 |
| 20260904003620 | 82 | 150 | 8.0 | 13.0 | 0.00 | 1.20 | 0.00 | 82 | 1010.9 |
| 20260904003048 | 82 | 105 | 6.0 | 13.0 | 0.00 | 1.20 | 0.00 | 83 | 1010.9 |
| 20260904002552 | 82 | 134 | 8.0 | 13.0 | 0.00 | 1.20 | 0.00 | 82 | 1011.0 |
| 20260904001620 | 83 | 146 | 6.0 | 12.0 | 0.00 | 1.20 | 0.00 | 82 | 1010.9 |
| 20260904001123 | 83 | 146 | 7.0 | 13.0 | 0.00 | 1.20 | 0.00 | 82 | 1010.9 |
| 20260904000625 | 83 | 150 | 6.0 | 13.0 | 0.00 | 1.20 | 0.00 | 82 | 1010.9 |
| 20260904000056 | 83 | 148 | 8.0 | 13.0 | 0.00 | 1.20 | 0.00 | 81 | 1010.9 |
| 20260903235608 | 83 | 140 | 8.0 | 12.0 | 0.00 | 1.20 | 0.00 | 81 | 1011.0 |
| 20260903234630 | 83 | 132 | 7.0 | 13.0 | 0.00 | 1.20 | 0.00 | 81 | 1010.9 |
| 20260903234121 | 83 | 127 | 7.0 | 12.0 | 0.00 | 1.20 | 0.00 | 81 | 1011.0 |
| 20260903233103 | 83 | 148 | 7.0 | 11.0 | 0.00 | 1.20 | 0.00 | 81 | 1011.1 |
| 20260903232607 | 83 | 117 | 6.0 | 12.0 | 0.00 | 1.20 | 0.00 | 81 | 1011.1 |
| 20260903231630 | 83 | 143 | 7.0 | 15.0 | 0.00 | 1.20 | 0.00 | 82 | 1011.1 |
| 20260903231045 | 83 | 126 | 9.0 | 15.0 | 0.00 | 1.20 | 0.00 | 82 | 1011.2 |
| 20260903230107 | 83 | 142 | 6.0 | 12.0 | 0.00 | 1.20 | 0.00 | 83 | 1011.1 |
| 20260903225618 | 83 | 137 | 6.0 | 12.0 | 0.00 | 1.20 | 0.00 | 82 | 1011.1 |
| 20260903225122 | 83 | 116 | 6.0 | 12.0 | 0.00 | 1.20 | 0.00 | 83 | 1011.2 |
| 20260903224549 | 83 | 117 | 7.0 | 12.0 | 0.00 | 1.20 | 0.00 | 83 | 1011.2 |
| 20260903224100 | 83 | 111 | 7.0 | 12.0 | 0.00 | 1.20 | 0.00 | 82 | 1011.2 |
| 20260903223123 | 83 | 136 | 7.0 | 12.0 | 0.00 | 1.20 | 0.00 | 82 | 1011.1 |
| 20260903222611 | 83 | 131 | 5.0 | 12.0 | 0.00 | 1.20 | 0.00 | 82 | 1011.1 |
| 20260903222122 | 82 | 160 | 5.0 | 11.0 | 0.00 | 1.20 | 0.00 | 83 | 1011.2 |
| 20260903221542 | 82 | 125 | 8.0 | 11.0 | 0.00 | 1.20 | 0.00 | 83 | 1011.3 |
| 20260903221053 | 83 | 104 | 6.0 | 11.0 | 0.00 | 1.20 | 0.00 | 83 | 1011.3 |
| 20260903220116 | 83 | 136 | 5.0 | 14.0 | 0.00 | 1.20 | 0.00 | 83 | 1011.4 |
| 20260903215627 | 83 | 135 | 8.0 | 14.0 | 0.00 | 1.20 | 0.00 | 82 | 1011.5 |
| 20260903215130 | 83 | 170 | 7.0 | 12.0 | 0.00 | 1.20 | 0.00 | 82 | 1011.5 |
| 20260903214556 | 83 | 142 | 7.0 | 12.0 | 0.00 | 1.20 | 0.00 | 82 | 1011.6 |
| 20260903214046 | 83 | 186 | 8.0 | 11.0 | 0.00 | 1.20 | 0.00 | 82 | 1011.8 |
| 20260903213105 | 83 | 137 | 7.0 | 15.0 | 0.00 | 1.20 | 0.00 | 82 | 1011.9 |
| 20260903212608 | 83 | 139 | 8.0 | 15.0 | 0.00 | 1.20 | 0.00 | 82 | 1012.0 |
| 20260903212114 | 83 | 155 | 10.0 | 14.0 | 0.00 | 1.20 | 0.00 | 82 | 1012.0 |
| 20260903211545 | 83 | 144 | 8.0 | 16.0 | 0.00 | 1.20 | 0.00 | 82 | 1012.1 |
| 20260903211050 | 83 | 140 | 9.0 | 16.0 | 0.00 | 1.20 | 0.00 | 82 | 1012.1 |
| 20260903210122 | 83 | 115 | 11.0 | 16.0 | 0.00 | 1.20 | 0.00 | 82 | 1012.2 |
| 20260903205601 | 83 | 155 | 12.0 | 17.0 | 0.00 | 1.20 | 0.00 | 83 | 1012.3 |
| 20260903204628 | 83 | 141 | 7.0 | 16.0 | 0.00 | 1.20 | 0.00 | 82 | 1012.2 |
| 20260903204119 | 84 | 160 | 9.0 | 15.0 | 0.00 | 1.20 | 0.00 | 81 | 1012.0 |
| 20260903203630 | 83 | 156 | 9.0 | 14.0 | 0.00 | 1.20 | 0.00 | 81 | 1012.1 |
| 20260903203051 | 83 | 150 | 7.0 | 13.0 | 0.00 | 1.20 | 0.00 | 80 | 1012.0 |
| 20260903202603 | 82 | 150 | 8.0 | 11.0 | 0.00 | 1.20 | 0.00 | 79 | 1012.0 |
| 20260903201603 | 82 | 111 | 7.0 | 13.0 | 0.00 | 1.20 | 0.00 | 80 | 1012.1 |
| 20260903201108 | 81 | 146 | 9.0 | 14.0 | 0.00 | 1.20 | 0.00 | 80 | 1012.2 |
| 20260903200126 | 82 | 150 | 8.0 | 19.0 | 0.00 | 1.20 | 0.00 | 78 | 1012.4 |
| 20260903195642 | 82 | 130 | 12.0 | 19.0 | 0.00 | 1.20 | 0.00 | 77 | 1012.6 |
| 20260903195132 | 82 | 135 | 8.0 | 15.0 | 0.00 | 1.20 | 0.00 | 79 | 1012.7 |
| 20260903194552 | 83 | 136 | 7.0 | 15.0 | 0.00 | 1.20 | 0.00 | 80 | 1012.7 |
| 20260903194104 | 84 | 135 | 5.0 | 19.0 | 0.00 | 1.20 | 0.00 | 82 | 1012.6 |
| 20260903193105 | 85 | 73 | 12.0 | 21.0 | 0.00 | 1.20 | 0.00 | 82 | 1012.5 |
| 20260903192617 | 87 | 76 | 11.0 | 20.0 | 0.00 | 1.20 | 0.00 | 79 | 1012.5 |
| 20260903192122 | 87 | 75 | 13.0 | 18.0 | 0.00 | 1.20 | 0.00 | 79 | 1012.4 |
| 20260903191547 | 87 | 76 | 11.0 | 18.0 | 0.00 | 1.20 | 0.00 | 79 | 1012.4 |
| 20260903191103 | 88 | 71 | 13.0 | 18.0 | 0.00 | 1.20 | 0.00 | 79 | 1012.4 |
| 20260903190124 | 89 | 74 | 10.0 | 14.0 | 0.00 | 1.20 | 0.00 | 78 | 1012.4 |
| 20260903185629 | 89 | 51 | 4.0 | 12.0 | 0.00 | 1.20 | 0.00 | 78 | 1012.4 |
| 20260903185115 | 89 | 24 | 7.0 | 12.0 | 0.00 | 1.20 | 0.00 | 78 | 1012.3 |
| 20260903184546 | 89 | 44 | 6.0 | 12.0 | 0.00 | 1.20 | 0.00 | 78 | 1012.5 |
| 20260903184051 | 89 | 28 | 4.0 | 11.0 | 0.00 | 1.20 | 0.00 | 78 | 1012.6 |
| 20260903183120 | 90 | 59 | 9.0 | 12.0 | 0.00 | 1.20 | 0.00 | 76 | 1012.5 |
| 20260903182604 | 91 | 69 | 5.0 | 9.0 | 0.00 | 1.20 | 0.00 | 75 | 1012.4 |
| 20260903182115 | 90 | 340 | 3.0 | 8.0 | 0.00 | 1.20 | 0.00 | 72 | 1012.5 |
| 20260903181540 | 90 | 355 | 3.0 | 6.0 | 0.00 | 1.20 | 0.00 | 73 | 1012.6 |
| 20260903181154 | 90 | 287 | 3.0 | 8.0 | 0.00 | 1.20 | 0.00 | 72 | 1012.6 |
| 20260903180545 | 90 | 239 | 3.0 | 8.0 | 0.00 | 1.20 | 0.00 | 73 | 1012.9 |
| 20260903180151 | 90 | 258 | 3.0 | 6.0 | 0.00 | 1.20 | 0.00 | 76 | 1013.0 |